Home   Weather   Kielce   Past weeks

Flag for Poland Past Weather in Kielce, Poland — Yesterday and Last 2 Weeks

Now
63 °F

Scattered clouds.


Feels Like: 63 °F
Forecast: 56 / 76 °F
Wind: 1 mph from West

Location: Kielce

Current Time: Jul 28, 2017 at 9:16:25 pm

Latest Report: Jul 28, 2017 at 8:00 pm


Visibility: 13 mi

Pressure: 29.86 "Hg

Humidity: 86%

Dew Point: 59 °F

Location of KielceLocation

Past Weather in Kielce — Graph

°F

Kielce Temperature Yesterday

Maximum temperature yesterday: 74 °F (at 4:00 pm)
Minimum temperature yesterday: 50 °F (at 5:00 am)
Average temperature yesterday: 63 °F

High & Low Weather Summary for the Past Weeks

 TemperatureHumidityPressure
High87 °F (Jul 20, 3:00 pm)100% (Jul 17, 11:00 pm)30.19 "Hg (Jul 17, 11:00 pm)
Low48 °F (Jul 16, 3:00 am)35% (Jul 20, 3:00 pm)29.50 "Hg (Jul 25, 8:00 am)
Average65 °F74%29.90 "Hg
* Reported Jul 13 7:00 pm — Jul 28 7:00 pm, Kielce. Weather by CustomWeather, © 2017

Note: Actual official high and low records may vary slightly from our data, if they occured in-between our weather recording intervals... More about our weather records

Advertising

Kielce Weather History for the Previous 24 Hours

Scroll right to see more
 ConditionsComfort  
Time TempWeatherWind HumidityBarometerVisibility
7:00 pm
Fri, Jul 28
64 °FThunderstorms. Overcast.1 mph88%29.85 "Hg12 mi
6:00 pm64 °FThundershowers. Overcast.2 mph76%29.83 "Hg1 mi
5:00 pm70 °FSprinkles. Overcast.1 mph78%29.80 "Hg22 mi
4:00 pm70 °FThunderstorms. Partly sunny.2 mph80%29.80 "Hg22 mi
3:00 pm61 °FThundershowers. Overcast.8 mph87%29.84 "Hg1 mi
2:00 pm74 °FOvercast.2 mph52%29.79 "Hg28 mi
1:00 pm73 °FOvercast.3 mph54%29.80 "Hg25 mi
12:00 pm73 °FOvercast.3 mph59%29.81 "Hg17 mi
11:00 am70 °FPartly sunny.2 mph63%29.82 "Hg17 mi
10:00 am68 °FOvercast.2 mph68%29.83 "Hg14 mi
9:00 am62 °FOvercast.1 mph82%29.84 "Hg14 mi
8:00 am59 °FOvercast.1 mph88%29.84 "Hg15 mi
7:00 am57 °FOvercast.1 mph94%29.84 "Hg8 mi
6:00 am55 °FLight rain. Overcast.1 mph93%29.83 "Hg9 mi
5:00 am55 °FOvercast.2 mph94%29.83 "Hg11 mi
4:00 am55 °FSprinkles. Overcast.No wind92%29.83 "Hg9 mi
3:00 am56 °FOvercast.2 mph90%29.83 "Hg16 mi
2:00 am54 °FOvercast.2 mph92%29.83 "Hg7 mi
1:00 am55 °FPassing clouds.2 mph91%29.83 "Hg7 mi
12:00 am56 °FPassing clouds.2 mph89%29.82 "Hg9 mi
11:00 pm
Thu, Jul 27
58 °FOvercast.1 mph87%29.81 "Hg15 mi
10:00 pm59 °FPassing clouds.1 mph83%29.81 "Hg19 mi
9:00 pm61 °FPassing clouds.2 mph79%29.80 "Hg31 mi
Weather by CustomWeather, © 2017

See weather overviewHow to use our weather pages